Tracking 28895 objects as of 28-May-2024
HD Live streaming from Space Station
objects crossing your sky now

GSAT0204

Track GSAT0204 now!
GSAT0204 is classified as:


NORAD ID: 40545
Int'l Code: 2015-017B
Perigee: 23,225.9 km
Apogee: 23,232.4 km
Inclination: 56.9 °
Period: 844.7 minutes
Semi major axis: 29600 km
RCS: Unknown
Launch date: March 27, 2015
Source: European Space Agency (ESA)
Launch site: FRENCH GUIANA (FRGUI)

GSAT0203 is a member of European's Galileo navigation satellite constellation.
Your satellite tracking list
Your tracking list is empty




NASA's NSSDC Master Catalog

Two Line Element Set (TLE):
1 40545U 15017B   24147.46652697 -.00000069  00000-0  00000-0 0  9991
2 40545  56.9294   2.0723 0001106 251.5082 108.5287  1.70475522 19431
Source of the keplerian elements: AFSPC